PACCTY Weather Reports


Display with metric or nautical units.
time (UTC)temp
F
wind
direction
speed
MPH
gust
MPH
rain 1hr
in
rain 24hr
in
rain mn
in
humidity
%
barometer
mb
20191215131920 36 0 0.0 0.0 0.00 0.03 0.00 100 1023.1
20191215131420 36 0 0.0 0.0 0.00 0.03 0.00 100 1023.0
20191215130920 36 0 0.0 0.0 0.00 0.03 0.00 100 1022.9
20191215130423 37 0 0.0 0.0 0.00 0.03 0.00 100 1023.0
20191215125921 36 0 0.0 0.0 0.00 0.03 0.00 100 1022.9
20191215125420 36 0 0.0 0.0 0.00 0.03 0.00 100 1022.9
20191215124920 37 0 0.0 0.0 0.00 0.03 0.00 100 1022.8
20191215124420 37 0 0.0 0.0 0.00 0.03 0.00 100 1022.8
20191215123920 37 0 0.0 0.0 0.00 0.03 0.00 100 1022.8
20191215123420 37 0 0.0 0.0 0.00 0.03 0.00 100 1022.9
20191215122920 37 0 0.0 0.0 0.00 0.03 0.00 100 1022.9
20191215122420 37 0 0.0 0.0 0.00 0.03 0.00 100 1022.9
20191215121920 37 0 0.0 0.0 0.00 0.03 0.00 100 1022.9
20191215121420 37 0 0.0 0.0 0.00 0.03 0.00 100 1022.8
20191215120921 38 0 0.0 0.0 0.00 0.03 0.00 100 1022.8
20191215120421 38 0 0.0 0.0 0.00 0.03 0.00 100 1022.7
20191215115920 38 0 0.0 0.0 0.00 0.03 0.00 100 1022.6
20191215115420 38 0 0.0 0.0 0.00 0.03 0.00 100 1022.7
20191215114920 38 0 0.0 0.0 0.00 0.03 0.00 100 1022.5
20191215114420 38 0 0.0 0.0 0.00 0.03 0.00 100 1022.5
20191215113920 38 0 0.0 0.0 0.00 0.03 0.00 100 1022.5
20191215113421 38 0 0.0 0.0 0.00 0.03 0.00 100 1022.5
20191215112920 38 0 0.0 0.0 0.00 0.03 0.00 100 1022.5
20191215112420 38 0 0.0 0.0 0.00 0.03 0.00 100 1022.3
20191215111920 38 0 0.0 0.0 0.00 0.03 0.00 100 1022.3
20191215111420 38 0 0.0 0.0 0.00 0.03 0.00 100 1022.2
20191215110921 38 0 0.0 0.0 0.00 0.03 0.00 100 1022.2
20191215110426 38 0 0.0 0.0 0.00 0.03 0.00 100 1022.3
20191215105920 38 0 0.0 0.0 0.00 0.03 0.00 100 1022.2
20191215104920 38 0 0.0 0.0 0.00 0.03 0.00 100 1022.1
20191215104420 38 0 0.0 0.0 0.00 0.03 0.00 100 1022.0
20191215103420 38 0 0.0 0.0 0.00 0.03 0.00 100 1022.0
20191215102920 38 0 0.0 0.0 0.00 0.03 0.00 100 1021.9
20191215102420 38 0 0.0 0.0 0.00 0.03 0.00 100 1021.8
20191215101920 38 0 0.0 0.0 0.00 0.03 0.00 100 1021.7
20191215101420 38 0 0.0 0.0 0.00 0.03 0.00 100 1021.6
20191215100920 38 0 0.0 0.0 0.00 0.03 0.00 100 1021.6
20191215100420 38 0 0.0 0.0 0.00 0.04 0.00 100 1021.6
20191215095920 38 0 0.0 0.0 0.00 0.04 0.00 100 1021.5
20191215095420 38 0 0.0 0.0 0.00 0.04 0.00 100 1021.4
20191215094420 38 0 0.0 0.0 0.00 0.04 0.00 100 1021.2
20191215093920 38 0 0.0 0.0 0.00 0.04 0.00 100 1021.2
20191215093420 38 0 0.0 0.0 0.00 0.04 0.00 100 1021.3
20191215092920 38 0 0.0 0.0 0.00 0.04 0.00 100 1021.3
20191215092421 38 0 0.0 0.0 0.00 0.04 0.00 100 1021.2
20191215091420 38 0 0.0 0.0 0.00 0.04 0.00 100 1021.0
20191215090920 38 0 0.0 0.0 0.00 0.04 0.00 100 1021.0
20191215090420 38 0 0.0 0.0 0.00 0.08 0.00 100 1020.9
20191215085920 38 0 0.0 0.0 0.00 0.08 0.00 100 1021.0
20191215085420 38 0 0.0 0.0 0.00 0.08 0.00 100 1021.0
20191215084920 38 0 0.0 0.0 0.00 0.08 0.00 100 1020.9
20191215084420 38 0 0.0 0.0 0.00 0.08 0.00 100 1020.9
20191215083920 38 0 0.0 0.0 0.00 0.08 0.00 100 1020.8
20191215083422 38 0 0.0 3.0 0.00 0.08 0.00 100 1020.8
20191215082920 38 0 0.0 3.0 0.00 0.08 0.00 100 1020.7
20191215082420 38 112 0.0 3.0 0.00 0.08 0.00 100 1020.6
20191215081920 38 93 0.0 3.0 0.00 0.08 0.00 100 1020.5
20191215081420 38 0 0.0 2.0 0.00 0.08 0.00 100 1020.4
20191215080920 38 58 0.0 2.0 0.00 0.08 0.00 100 1020.4
20191215080420 38 0 0.0 0.0 0.00 0.08 0.00 100 1020.4
20191215075920 38 0 0.0 0.0 0.00 0.08 0.00 100 1020.3
20191215075423 39 0 0.0 3.0 0.00 0.08 0.00 100 1020.2
20191215074920 39 0 0.0 3.0 0.00 0.08 0.00 100 1020.3
20191215074420 39 42 0.0 3.0 0.00 0.08 0.00 100 1020.3
20191215073920 39 0 0.0 3.0 0.00 0.08 0.00 100 1020.3
20191215073420 39 75 0.0 3.0 0.00 0.08 0.00 100 1020.3
20191215072920 39 103 0.0 3.0 0.00 0.08 0.00 100 1020.2
20191215072420 39 0 1.0 1.0 0.00 0.08 0.00 100 1020.1
20191215071920 39 0 0.0 0.0 0.00 0.08 0.00 100 1020.1
20191215071420 39 0 0.0 0.0 0.00 0.08 0.00 100 1020.0
20191215070920 39 0 0.0 0.0 0.00 0.08 0.00 100 1019.9
20191215070420 39 0 0.0 0.0 0.00 0.08 0.00 100 1019.9
20191215065920 39 0 0.0 0.0 0.00 0.08 0.08 100 1019.9
20191215065420 39 0 0.0 0.0 0.00 0.08 0.08 100 1019.8
20191215064920 39 0 0.0 0.0 0.00 0.08 0.08 100 1019.6
20191215064420 40 0 0.0 0.0 0.00 0.08 0.08 100 1019.6
20191215063920 40 0 0.0 0.0 0.00 0.08 0.08 100 1019.6
20191215063420 40 0 0.0 3.0 0.00 0.08 0.08 100 1019.6
20191215062920 40 0 0.0 3.0 0.00 0.08 0.08 100 1019.6
20191215062420 40 15 0.0 3.0 0.00 0.08 0.08 100 1019.5
20191215061920 40 0 0.0 2.0 0.00 0.08 0.08 100 1019.4
20191215061420 40 0 0.0 2.0 0.00 0.08 0.08 100 1019.3
20191215060920 40 329 0.0 2.0 0.00 0.08 0.08 100 1019.2
20191215060420 40 0 0.0 0.0 0.00 0.09 0.08 100 1019.2
20191215055920 40 0 0.0 0.0 0.00 0.09 0.08 100 1019.2
20191215055420 40 0 0.0 0.0 0.00 0.09 0.08 100 1019.1
20191215054920 40 0 0.0 0.0 0.00 0.09 0.08 100 1019.0
20191215054420 40 0 0.0 1.0 0.00 0.09 0.08 100 1019.0
20191215053920 41 0 0.0 1.0 0.00 0.09 0.08 100 1018.9
20191215053420 41 9 0.0 1.0 0.00 0.09 0.08 100 1018.8
20191215052921 41 0 0.0 0.0 0.00 0.09 0.08 100 1018.8
20191215052420 41 0 0.0 0.0 0.00 0.09 0.08 100 1018.7
20191215051920 41 0 0.0 0.0 0.00 0.09 0.08 100 1018.6
20191215051421 41 0 0.0 0.0 0.00 0.09 0.08 100 1018.6
20191215050920 41 0 0.0 0.0 0.00 0.09 0.08 100 1018.5
20191215050420 41 0 0.0 0.0 0.00 0.09 0.08 100 1018.5
20191215045920 41 0 0.0 0.0 0.00 0.09 0.08 100 1018.5
20191215045420 41 0 0.0 0.0 0.00 0.09 0.08 100 1018.5
20191215044920 42 0 0.0 0.0 0.00 0.09 0.08 100 1018.5
20191215044420 42 0 0.0 1.0 0.00 0.09 0.08 100 1018.4
20191215043920 42 0 0.0 1.0 0.00 0.09 0.08 100 1018.3
20191215043420 42 7 0.0 1.0 0.00 0.09 0.08 100 1018.4
20191215042920 42 0 0.0 0.0 0.00 0.09 0.08 100 1018.3
20191215042420 42 0 0.0 0.0 0.00 0.09 0.08 100 1018.4
20191215041919 42 0 0.0 0.0 0.00 0.09 0.08 100 1018.3
20191215041419 42 0 0.0 0.0 0.00 0.09 0.08 100 1018.3
20191215040919 42 0 0.0 0.0 0.00 0.09 0.08 100 1018.3
20191215040420 42 0 0.0 0.0 0.00 0.09 0.08 100 1018.3
20191215035919 42 0 0.0 0.0 0.00 0.09 0.08 100 1018.2
20191215035419 43 0 0.0 0.0 0.00 0.09 0.08 100 1018.1
20191215034919 43 0 0.0 0.0 0.00 0.09 0.08 100 1018.0
20191215034419 43 0 0.0 0.0 0.00 0.09 0.08 100 1018.0
20191215033920 43 0 0.0 0.0 0.00 0.09 0.08 100 1018.0
20191215033420 43 0 0.0 0.0 0.00 0.09 0.08 100 1017.9
20191215032920 43 0 0.0 0.0 0.00 0.09 0.08 100 1017.8
20191215031919 43 0 0.0 0.0 0.00 0.09 0.08 100 1017.7
20191215031419 43 0 0.0 0.0 0.00 0.09 0.08 100 1017.5
20191215030919 44 0 0.0 0.0 0.00 0.09 0.08 100 1017.5
20191215030419 44 0 0.0 0.0 0.00 0.09 0.08 100 1017.5
20191215025919 44 0 0.0 0.0 0.00 0.09 0.08 100 1017.4
20191215025419 44 0 0.0 0.0 0.00 0.09 0.08 100 1017.3
20191215024919 44 0 0.0 0.0 0.00 0.09 0.08 100 1017.4
20191215024419 44 0 0.0 0.0 0.00 0.09 0.08 100 1017.4
20191215023919 44 0 0.0 0.0 0.00 0.09 0.08 100 1017.3
20191215023420 45 0 0.0 0.0 0.00 0.09 0.08 100 1017.3
20191215022919 45 0 0.0 0.0 0.00 0.09 0.08 100 1017.2
20191215022419 45 0 0.0 0.0 0.00 0.09 0.08 100 1017.2
20191215021919 45 0 0.0 0.0 0.00 0.09 0.08 100 1017.2
20191215021419 45 0 0.0 0.0 0.00 0.09 0.08 100 1017.2
20191215020919 45 0 0.0 0.0 0.00 0.09 0.08 100 1017.2
20191215020420 45 0 0.0 0.0 0.00 0.09 0.08 100 1017.3
20191215015919 45 0 0.0 0.0 0.00 0.09 0.08 100 1017.2
20191215015420 45 0 0.0 0.0 0.00 0.09 0.08 100 1017.2
20191215014920 45 0 0.0 0.0 0.00 0.09 0.08 100 1017.3
20191215014419 45 0 0.0 0.0 0.00 0.09 0.08 100 1017.3
20191215013919 45 0 0.0 0.0 0.00 0.09 0.08 100 1017.3
20191215013419 45 0 0.0 0.0 0.00 0.09 0.08 100 1017.2
20191215012919 45 0 0.0 0.0 0.00 0.09 0.08 100 1017.3
20191215012419 45 0 0.0 0.0 0.00 0.09 0.08 100 1017.3
20191215011919 45 0 0.0 0.0 0.00 0.09 0.08 100 1017.2
20191215011419 45 0 0.0 0.0 0.00 0.09 0.08 100 1017.1
20191215010419 45 0 0.0 0.0 0.00 0.09 0.08 100 1017.2
20191215005919 45 0 0.0 0.0 0.00 0.09 0.08 100 1017.1
20191215005419 45 0 0.0 0.0 0.00 0.09 0.08 100 1017.0
20191215004919 45 0 0.0 0.0 0.00 0.09 0.08 100 1017.1
20191215004419 45 0 0.0 0.0 0.00 0.09 0.08 100 1017.0
20191215003919 45 0 0.0 0.0 0.00 0.09 0.08 100 1017.0
20191215003420 46 0 0.0 0.0 0.00 0.09 0.08 100 1016.9
20191215002919 46 0 0.0 0.0 0.00 0.09 0.08 100 1017.0
20191215002419 46 0 0.0 0.0 0.00 0.09 0.08 100 1016.9
20191215001919 46 0 0.0 0.0 0.00 0.09 0.08 100 1016.9
20191215001421 46 0 0.0 0.0 0.00 0.09 0.08 100 1016.9
20191215000919 46 0 0.0 0.0 0.00 0.09 0.08 100 1016.8
20191215000419 46 0 0.0 0.0 0.00 0.09 0.08 100 1016.8
20191214235920 46 0 0.0 0.0 0.00 0.09 0.08 100 1016.8
20191214235421 46 0 0.0 0.0 0.00 0.09 0.08 100 1016.8
20191214234919 47 0 0.0 0.0 0.00 0.09 0.08 100 1016.9
20191214234420 47 0 0.0 0.0 0.00 0.09 0.08 100 1016.9
20191214233919 47 0 0.0 0.0 0.00 0.09 0.08 100 1016.8
20191214233420 47 0 0.0 0.0 0.00 0.09 0.08 100 1016.9
20191214232919 47 0 0.0 0.0 0.00 0.09 0.08 100 1016.8
20191214232420 47 0 0.0 0.0 0.00 0.09 0.08 100 1016.8
20191214231919 47 0 0.0 0.0 0.00 0.09 0.08 100 1016.8
20191214231420 47 0 0.0 0.0 0.00 0.09 0.08 100 1016.8
20191214225919 47 0 0.0 0.0 0.00 0.09 0.08 100 1016.9
20191214225419 48 0 0.0 0.0 0.00 0.09 0.08 100 1016.9
20191214224919 48 0 0.0 0.0 0.00 0.09 0.08 100 1016.8
20191214224421 48 0 0.0 0.0 0.00 0.09 0.08 100 1016.9
20191214223919 48 0 0.0 0.0 0.00 0.09 0.08 100 1016.8
20191214223420 48 0 0.0 0.0 0.00 0.09 0.08 100 1016.9
20191214222919 48 0 0.0 0.0 0.00 0.09 0.08 100 1016.9
20191214222419 48 0 0.0 0.0 0.00 0.09 0.08 100 1016.9
20191214221919 48 0 0.0 0.0 0.00 0.09 0.08 100 1016.8
20191214221420 48 0 0.0 0.0 0.00 0.09 0.08 100 1016.8
20191214220919 48 0 0.0 0.0 0.00 0.09 0.08 100 1016.9
20191214220419 48 0 0.0 0.0 0.00 0.09 0.08 100 1016.9
20191214215919 48 0 0.0 0.0 0.00 0.09 0.08 100 1016.9
20191214215419 48 0 0.0 0.0 0.00 0.09 0.08 100 1016.9
20191214214919 48 0 0.0 0.0 0.00 0.09 0.08 100 1016.9
20191214213920 48 0 0.0 0.0 0.00 0.09 0.08 100 1017.0
20191214213422 48 0 0.0 0.0 0.00 0.09 0.08 100 1017.1
20191214212919 48 0 0.0 0.0 0.00 0.09 0.08 100 1017.1
20191214212419 48 0 0.0 0.0 0.00 0.09 0.08 100 1017.2
20191214211919 48 0 0.0 0.0 0.00 0.09 0.08 100 1017.2
20191214211419 48 0 0.0 0.0 0.00 0.09 0.08 100 1017.2
20191214210919 48 0 0.0 0.0 0.00 0.09 0.08 100 1017.2
20191214210420 47 0 0.0 0.0 0.00 0.09 0.08 100 1017.2
20191214205919 48 0 0.0 0.0 0.00 0.09 0.08 100 1017.2
20191214205419 48 0 0.0 0.0 0.00 0.09 0.08 100 1017.3
20191214204919 48 0 0.0 0.0 0.00 0.09 0.08 100 1017.3
20191214203920 47 0 0.0 0.0 0.00 0.09 0.08 100 1017.4
20191214203420 47 0 0.0 0.0 0.00 0.09 0.08 100 1017.5
20191214202919 47 0 0.0 0.0 0.00 0.09 0.08 100 1017.5
20191214202419 47 0 0.0 0.0 0.00 0.09 0.08 100 1017.7
20191214201419 47 0 0.0 0.0 0.00 0.09 0.08 100 1017.7
20191214200920 47 0 0.0 0.0 0.00 0.09 0.08 100 1017.7
20191214200421 46 0 0.0 0.0 0.00 0.09 0.08 100 1017.8
20191214195919 46 0 0.0 0.0 0.00 0.09 0.08 100 1017.8
20191214195419 46 0 0.0 0.0 0.00 0.09 0.08 100 1017.9
20191214194919 46 0 0.0 0.0 0.00 0.09 0.08 100 1017.9
20191214194419 46 0 0.0 0.0 0.00 0.09 0.08 100 1018.0
20191214193919 46 0 0.0 0.0 0.00 0.09 0.08 100 1018.1
20191214193419 46 0 0.0 0.0 0.00 0.09 0.08 100 1018.0
20191214192919 45 0 0.0 0.0 0.00 0.09 0.08 100 1018.1
20191214192419 45 0 0.0 0.0 0.00 0.09 0.08 100 1018.1
20191214191919 45 0 0.0 0.0 0.00 0.09 0.08 100 1018.2
20191214191419 45 0 0.0 0.0 0.00 0.09 0.08 100 1018.3
20191214190919 45 0 0.0 0.0 0.00 0.09 0.08 100 1018.5
20191214190419 45 0 0.0 0.0 0.00 0.09 0.08 100 1018.6
20191214185919 45 0 0.0 0.0 0.00 0.09 0.08 100 1018.7
20191214185420 45 0 0.0 0.0 0.00 0.09 0.08 100 1018.7
20191214184919 45 0 0.0 0.0 0.00 0.09 0.08 100 1018.8
20191214184419 45 0 0.0 2.0 0.00 0.09 0.08 100 1018.9
20191214183919 45 0 0.0 2.0 0.00 0.09 0.08 100 1019.1
20191214183420 45 28 0.0 2.0 0.00 0.09 0.08 100 1019.0
20191214182920 45 0 1.0 1.0 0.00 0.09 0.08 100 1019.0
20191214182419 45 0 0.0 0.0 0.00 0.09 0.08 100 1019.1
20191214181919 45 0 0.0 0.0 0.00 0.09 0.08 100 1019.0
20191214181420 44 0 0.0 0.0 0.00 0.09 0.08 100 1019.0
20191214180919 44 0 0.0 3.0 0.00 0.09 0.08 100 1019.1
20191214180419 44 54 0.0 3.0 0.00 0.10 0.08 100 1019.0
20191214175419 44 351 0.0 1.0 0.00 0.10 0.08 100 1019.0
20191214174419 44 0 0.0 0.0 0.00 0.10 0.08 100 1019.1
20191214173920 44 0 0.0 0.0 0.00 0.10 0.08 100 1019.2
20191214173420 44 0 0.0 0.0 0.00 0.10 0.08 100 1019.1
20191214172919 44 0 0.0 0.0 0.00 0.10 0.08 100 1019.0
20191214172419 44 0 0.0 0.0 0.00 0.10 0.08 100 1019.0
20191214171919 44 0 0.0 0.0 0.00 0.10 0.08 100 1019.0
20191214171422 44 0 0.0 0.0 0.00 0.10 0.08 100 1019.0
20191214170419 44 0 0.0 0.0 0.01 0.10 0.08 100 1019.2
20191214165919 44 0 0.0 0.0 0.01 0.10 0.08 100 1019.2
20191214165419 43 0 0.0 0.0 0.01 0.10 0.08 100 1019.2
20191214164919 43 0 0.0 0.0 0.01 0.10 0.08 100 1019.2
20191214164419 43 0 0.0 0.0 0.01 0.10 0.08 100 1019.2
20191214163919 43 0 0.0 0.0 0.01 0.10 0.08 100 1019.3
20191214163419 43 0 0.0 0.0 0.01 0.10 0.08 100 1019.2
20191214162919 43 0 0.0 0.0 0.01 0.10 0.08 100 1019.2
20191214162419 43 0 0.0 0.0 0.01 0.10 0.08 100 1019.1
20191214161919 43 0 0.0 0.0 0.01 0.10 0.08 100 1019.2
20191214161419 43 0 0.0 0.0 0.01 0.10 0.08 100 1019.2
20191214160919 43 0 0.0 0.0 0.01 0.10 0.08 100 1019.2
20191214160419 43 0 0.0 0.0 0.00 0.09 0.08 100 1019.2
20191214155919 43 0 0.0 0.0 0.00 0.09 0.07 100 1019.2
20191214155420 43 0 0.0 0.0 0.01 0.09 0.07 100 1019.3
20191214154918 43 0 0.0 0.0 0.01 0.09 0.07 100 1019.3
20191214153919 43 0 0.0 0.0 0.01 0.09 0.07 100 1019.3
20191214152918 43 0 0.0 0.0 0.01 0.09 0.07 100 1019.4
20191214152419 43 0 0.0 0.0 0.01 0.09 0.07 100 1019.4
20191214151918 43 0 0.0 0.0 0.01 0.09 0.07 100 1019.4
20191214151418 43 0 0.0 0.0 0.01 0.09 0.07 100 1019.4
20191214150918 43 0 0.0 0.0 0.01 0.09 0.07 100 1019.4
20191214150419 43 0 0.0 0.0 0.01 0.09 0.07 100 1019.4
20191214145918 44 0 0.0 0.0 0.01 0.09 0.07 100 1019.6
20191214145419 44 0 0.0 0.0 0.01 0.09 0.07 100 1019.5
20191214144919 44 0 0.0 0.0 0.01 0.09 0.07 100 1019.5
20191214144418 43 0 0.0 0.0 0.01 0.09 0.06 100 1019.5
20191214143918 43 0 0.0 0.0 0.01 0.09 0.06 100 1019.4
20191214143419 43 0 0.0 0.0 0.01 0.09 0.06 100 1019.4
20191214142418 43 0 0.0 0.0 0.01 0.09 0.06 100 1019.6
20191214141919 43 0 0.0 0.0 0.01 0.09 0.06 100 1019.6
20191214141419 42 0 0.0 0.0 0.01 0.09 0.06 100 1019.5
20191214140918 42 0 0.0 0.0 0.01 0.09 0.06 100 1019.5
20191214140420 42 0 0.0 3.0 0.01 0.08 0.06 100 1019.3
20191214135917 42 0 0.0 3.0 0.01 0.08 0.06 100 1019.3
20191214135418 42 235 0.0 3.0 0.00 0.08 0.06 100 1019.3
20191214134918 42 0 0.0 1.0 0.00 0.08 0.06 100 1019.5
20191214134418 42 0 0.0 0.0 0.00 0.08 0.05 100 1019.4
20191214133918 42 0 0.0 0.0 0.00 0.08 0.05 100 1019.3
20191214133418 42 0 0.0 0.0 0.00 0.08 0.05 100 1019.3
20191214132918 42 0 0.0 0.0 0.00 0.08 0.05 100 1019.3